{"data":{"norad_id":64818,"epoch":"2026-05-24T21:32:04.181568Z","epoch_age_seconds":77135,"freshness":"FRESH","line1":"1 64818U 25151C   26144.89727062 -.00000364  00000+0 -18696-4 0  9997","line2":"2 64818  51.9000 326.0993 0000710  96.8747 263.2296 14.79931633 46551","mean_motion":14.79931633,"eccentricity":7.1e-5,"inclination_deg":51.9,"raan_deg":326.0993,"arg_perigee_deg":96.8747,"mean_anomaly_deg":263.2296,"bstar":-1.8696e-5,"rev_number":4655,"period_min":97.30179204839,"perigee_km":629.04239939552,"apogee_km":630.03748952163,"semimajor_km":7007.6769444586,"source":"CELESTRAK","updated_at":"2026-05-25T13:38:04.821722Z"}}